Location: Staunton
(38.1490°N, 79.0720°W)
Time: 13:45:19
(UTC-04:00)

ISS - Pass Details

Date: 18 July 2019
Orbit: 409 x 418 km, 51.6° (Epoch: 20 July)

Event Time Altitude Azimuth Distance (km) Brightness Sun altitude
Rises 21:35:47 0° 232° (SW) 2,342 0.2 -10.5°
Reaches altitude 10° 21:37:53 10° 234° (SW) 1,481 -0.8 -10.9°
Maximum altitude 21:41:12 78° 320° (NW) 426 -3.7 -11.4°
Drops below altitude 10° 21:44:32 10° 48° (NE) 1,485 -1.1 -11.9°
Sets 21:46:38 0° 50° (NE) 2,348 -0.1 -12.2°
